This is the latest recevied weather packets stored in our database for station/object KH6DH-13. If no packets are shown the sender has not sent any weather packets the latest 10 day(s).
| Time | Temp. | Humidity | Pressure | Rain* | Wind** | Luminosity | Snow |
|---|---|---|---|---|---|---|---|
| 1787947538 | 27.78° C | - | - | 0 mm | 2.24 m/s, 83° | - | - |
| 1787946937 | 27.78° C | - | - | 0 mm | 2.68 m/s, 58° | - | - |
| 1787946336 | 27.78° C | - | - | 0 mm | 2.24 m/s, 143° | - | - |
| 1787945735 | 27.78° C | - | - | 0 mm | 1.79 m/s, 51° | - | - |
| 1787945134 | 27.22° C | - | - | 0 mm | 0.89 m/s, 82° | - | - |
| 1787944533 | 27.22° C | - | - | 0 mm | 0.45 m/s, 58° | - | - |
| 1787943931 | 26.67° C | - | - | 0 mm | 0.89 m/s, 93° | - | - |
| 1787943330 | 26.67° C | - | - | 0 mm | 1.34 m/s, 103° | - | - |
| 1787942729 | 26.67° C | - | - | 0 mm | 0.89 m/s, 191° | - | - |
| 1787942128 | 26.11° C | - | - | 0 mm | 1.34 m/s, 197° | - | - |
| 1787941527 | 26.11° C | - | - | 0 mm | 0.45 m/s, 97° | - | - |
| 1787940926 | 26.11° C | - | - | 0 mm | 0.45 m/s, 197° | - | - |
| 1787940325 | 25.56° C | - | - | 0 mm | 0 m/s | - | - |
| 1787939724 | 25.56° C | - | - | 0 mm | 1.34 m/s, 25° | - | - |
| 1787939123 | 25.56° C | - | - | 0 mm | 0 m/s | - | - |
| 1787938522 | 25° C | - | - | 0 mm | 1.34 m/s, 139° | - | - |
| 1787937921 | 25.56° C | - | - | 0 mm | 0.45 m/s, 170° | - | - |
| 1787937320 | 25° C | - | - | 0 mm | 0.45 m/s, 163° | - | - |
| 1787936719 | 25° C | - | - | 0 mm | 0.45 m/s, 27° | - | - |
| 1787936118 | 25° C | - | - | 0 mm | 1.34 m/s, 0° | - | - |
| 1787935517 | 25° C | - | - | 0 mm | 2.24 m/s, 58° | - | - |
| 1787934916 | 25° C | - | - | 0 mm | 0.89 m/s, 198° | - | - |
| 1787934315 | 25° C | - | - | 0 mm | 1.34 m/s, 104° | - | - |
| 1787933714 | 25° C | - | - | 0 mm | 0 m/s | - | - |
| 1787933108 | 25° C | - | - | 0 mm | 1.34 m/s, 98° | - | - |
* Rain latest hour (hover to see other rain measurements)
** Current wind speed in m/s (hover to see current wind gust speed)